Time,TemperatureF,DewpointF,PressureIn,WindDirection,WindDirectionDegrees,WindSpeedMPH,WindSpeedGustMPH,Humidity,HourlyPrecipIn,Conditions,Clouds,dailyrainin,SolarRadiationWatts/m^2,SoftwareType,DateUTC
2013-01-01 00:00:00,60.4,56.2,30.21,SE,145,4.0,20.0,86,0.00,,,0.00,0,Wunderground v.1.15,2013-01-01 05:00:00,
2013-01-01 00:01:00,60.4,56.2,30.21,SE,145,4.0,20.0,86,0.00,,,0.00,0,Wunderground v.1.15,2013-01-01 05:01:00,
2013-01-01 00:02:00,60.4,56.2,30.21,SE,145,4.0,20.0,86,0.00,,,0.00,0,Wunderground v.1.15,2013-01-01 05:02:00,
2013-01-01 00:07:00,60.5,56.3,30.21,SE,145,3.0,20.0,86,0.00,,,0.00,0,Wunderground v.1.15,2013-01-01 05:07:00,
2013-01-01 00:08:00,60.5,56.3,30.21,SE,145,3.0,20.0,86,0.00,,,0.00,0,Wunderground v.1.15,2013-01-01 05:08:00,
2013-01-01 00:14:00,60.5,56.3,30.21,SE,145,2.0,20.0,86,0.00,,,0.00,0,Wunderground v.1.15,2013-01-01 05:14:00,
2013-01-01 00:20:00,60.5,56.3,30.21,SE,145,1.0,1.0,86,0.00,,,0.00,0,Wunderground v.1.15,2013-01-01 05:20:00,
2013-01-01 00:26:00,60.5,56.3,30.21,SE,145,1.0,20.0,86,0.00,,,0.00,0,Wunderground v.1.15,2013-01-01 05:26:00,
2013-01-01 00:31:00,60.4,56.2,30.21,SE,145,1.0,20.0,86,0.00,,,0.00,0,Wunderground v.1.15,2013-01-01 05:31:00,
2013-01-01 00:36:00,60.3,56.1,30.20,SE,145,1.0,20.0,86,0.00,,,0.00,0,Wunderground v.1.15,2013-01-01 05:36:00,
2013-01-01 00:42:00,60.1,55.9,30.20,SE,145,1.0,20.0,86,0.00,,,0.00,0,Wunderground v.1.15,2013-01-01 05:42:00,
2013-01-01 00:48:00,59.9,55.7,30.20,SE,145,1.0,20.0,86,0.00,,,0.00,0,Wunderground v.1.15,2013-01-01 05:48:00,
2013-01-01 00:54:00,59.6,55.7,30.20,SE,145,1.0,20.0,87,0.00,,,0.00,0,Wunderground v.1.15,2013-01-01 05:54:00,
2013-01-01 00:59:00,59.4,55.5,30.20,SE,145,0.0,20.0,87,0.00,,,0.00,0,Wunderground v.1.15,2013-01-01 05:59:00,
2013-01-01 01:05:00,59.1,55.2,30.19,SE,145,0.0,20.0,87,0.00,,,0.00,0,Wunderground v.1.15,2013-01-01 06:05:00,
2013-01-01 01:11:00,58.8,55.3,30.19,SE,145,1.0,20.0,88,0.00,,,0.00,0,Wunderground v.1.15,2013-01-01 06:11:00,
2013-01-01 01:17:00,58.6,55.1,30.19,SE,145,1.0,20.0,88,0.00,,,0.00,0,Wunderground v.1.15,2013-01-01 06:17:00,
2013-01-01 01:22:00,58.2,54.7,30.20,SE,145,0.0,20.0,88,0.00,,,0.00,0,Wunderground v.1.15,2013-01-01 06:22:00,
2013-01-01 01:28:00,57.8,54.3,30.19,SE,145,0.0,20.0,88,0.00,,,0.00,0,Wunderground v.1.15,2013-01-01 06:28:00,
2013-01-01 01:33:00,57.6,54.4,30.19,SE,145,0.0,20.0,89,0.00,,,0.00,0,Wunderground v.1.15,2013-01-01 06:33:00,
2013-01-01 01:39:00,57.4,54.5,30.19,SE,145,1.0,20.0,90,0.00,,,0.00,0,Wunderground v.1.15,2013-01-01 06:39:00,
2013-01-01 01:45:00,57.3,54.4,30.18,SE,145,1.0,20.0,90,0.00,,,0.00,0,Wunderground v.1.15,2013-01-01 06:45:00,
2013-01-01 01:50:00,57.1,54.5,30.18,SE,145,0.0,20.0,91,0.00,,,0.00,0,Wunderground v.1.15,2013-01-01 06:50:00,
2013-01-01 01:55:00,57.0,54.4,30.18,SE,145,0.0,20.0,91,0.00,,,0.00,0,Wunderground v.1.15,2013-01-01 06:55:00,
2013-01-01 02:01:00,57.0,54.4,30.18,SE,145,0.0,20.0,91,0.00,,,0.00,0,Wunderground v.1.15,2013-01-01 07:01:00,
2013-01-01 02:07:00,56.9,54.3,30.18,SE,145,0.0,20.0,91,0.00,,,0.00,0,Wunderground v.1.15,2013-01-01 07:07:00,
2013-01-01 02:13:00,56.8,54.5,30.18,SE,145,1.0,20.0,92,0.00,,,0.00,0,Wunderground v.1.15,2013-01-01 07:13:00,
2013-01-01 02:19:00,56.8,54.5,30.17,SE,145,2.0,20.0,92,0.00,,,0.00,0,Wunderground v.1.15,2013-01-01 07:19:00,
2013-01-01 02:24:00,57.4,55.4,30.17,SE,145,3.0,20.0,93,0.00,,,0.00,0,Wunderground v.1.15,2013-01-01 07:24:00,
2013-01-01 02:30:00,57.8,55.8,30.17,SE,145,4.0,20.0,93,0.00,,,0.00,0,Wunderground v.1.15,2013-01-01 07:30:00,
2013-01-01 02:36:00,58.1,55.8,30.16,SE,145,4.0,20.0,92,0.00,,,0.00,0,Wunderground v.1.15,2013-01-01 07:36:00,
2013-01-01 02:41:00,58.3,56.0,30.17,SE,145,4.0,5.0,92,0.00,,,0.00,0,Wunderground v.1.15,2013-01-01 07:41:00,
2013-01-01 02:47:00,58.5,55.9,30.16,SE,145,4.0,20.0,91,0.00,,,0.00,0,Wunderground v.1.15,2013-01-01 07:47:00,
2013-01-01 02:53:00,58.7,56.1,30.16,SSE,147,5.0,20.0,91,0.00,,,0.00,0,Wunderground v.1.15,2013-01-01 07:53:00,
2013-01-01 02:59:00,58.9,56.3,30.16,SSE,147,5.0,20.0,91,0.00,,,0.00,0,Wunderground v.1.15,2013-01-01 07:59:00,
2013-01-01 03:04:00,59.1,56.2,30.17,SSE,147,5.0,20.0,90,0.00,,,0.00,0,Wunderground v.1.15,2013-01-01 08:04:00,
2013-01-01 03:10:00,59.1,55.9,30.16,SSE,147,4.0,4.0,89,0.00,,,0.00,0,Wunderground v.1.15,2013-01-01 08:10:00,
2013-01-01 03:16:00,59.1,55.9,30.16,SSE,147,4.0,20.0,89,0.00,,,0.00,0,Wunderground v.1.15,2013-01-01 08:16:00,
2013-01-01 03:22:00,59.0,55.8,30.16,SSE,147,2.0,20.0,89,0.00,,,0.00,0,Wunderground v.1.15,2013-01-01 08:22:00,
2013-01-01 03:27:00,58.8,55.6,30.16,SSE,147,1.0,20.0,89,0.00,,,0.00,0,Wunderground v.1.15,2013-01-01 08:27:00,
2013-01-01 03:33:00,58.5,55.0,30.16,SSE,148,0.0,20.0,88,0.00,,,0.00,0,Wunderground v.1.15,2013-01-01 08:33:00,
2013-01-01 03:39:00,58.2,55.0,30.16,SSE,147,0.0,20.0,89,0.00,,,0.00,0,Wunderground v.1.15,2013-01-01 08:39:00,
2013-01-01 03:45:00,57.8,54.6,30.16,SSE,147,0.0,20.0,89,0.00,,,0.00,0,Wunderground v.1.15,2013-01-01 08:45:00,
2013-01-01 03:51:00,57.6,54.7,30.15,SSE,147,1.0,20.0,90,0.00,,,0.00,0,Wunderground v.1.15,2013-01-01 08:51:00,
2013-01-01 03:57:00,57.4,54.5,30.15,SSE,147,2.0,20.0,90,0.00,,,0.00,0,Wunderground v.1.15,2013-01-01 08:57:00,
2013-01-01 04:03:00,57.3,54.7,30.15,SSE,147,4.0,20.0,91,0.00,,,0.00,0,Wunderground v.1.15,2013-01-01 09:03:00,
2013-01-01 04:08:00,57.4,54.8,30.14,SSE,147,4.0,20.0,91,0.00,,,0.00,0,Wunderground v.1.15,2013-01-01 09:08:00,
2013-01-01 04:14:00,57.7,55.4,30.14,SSE,148,4.0,20.0,92,0.00,,,0.00,0,Wunderground v.1.15,2013-01-01 09:14:00,
2013-01-01 04:20:00,58.1,55.8,30.14,SSE,148,4.0,4.0,92,0.00,,,0.00,0,Wunderground v.1.15,2013-01-01 09:20:00,
2013-01-01 04:26:00,58.4,55.8,30.14,SSE,148,4.0,20.0,91,0.00,,,0.00,0,Wunderground v.1.15,2013-01-01 09:26:00,
2013-01-01 04:31:00,58.5,55.6,30.14,SSE,148,3.0,20.0,90,0.00,,,0.00,0,Wunderground v.1.15,2013-01-01 09:31:00,
2013-01-01 04:37:00,58.5,55.6,30.14,SSE,148,2.0,20.0,90,0.00,,,0.00,0,Wunderground v.1.15,2013-01-01 09:37:00,
2013-01-01 04:43:00,58.3,55.4,30.13,SSE,148,1.0,20.0,90,0.00,,,0.00,0,Wunderground v.1.15,2013-01-01 09:43:00,
2013-01-01 04:49:00,58.1,55.2,30.13,SSE,148,2.0,20.0,90,0.00,,,0.00,0,Wunderground v.1.15,2013-01-01 09:49:00,
2013-01-01 04:55:00,57.9,55.0,30.13,SSE,148,2.0,20.0,90,0.00,,,0.00,0,Wunderground v.1.15,2013-01-01 09:55:00,
2013-01-01 05:01:00,58.0,55.4,30.13,SSE,148,3.0,20.0,91,0.00,,,0.00,0,Wunderground v.1.15,2013-01-01 10:01:00,
2013-01-01 05:07:00,58.4,56.1,30.12,SSE,148,3.0,20.0,92,0.00,,,0.00,0,Wunderground v.1.15,2013-01-01 10:07:00,
2013-01-01 05:12:00,58.7,56.4,30.13,SSE,148,2.0,20.0,92,0.00,,,0.00,0,Wunderground v.1.15,2013-01-01 10:12:00,
2013-01-01 05:18:00,58.7,56.1,30.13,SSE,148,0.0,20.0,91,0.00,,,0.00,0,Wunderground v.1.15,2013-01-01 10:18:00,
2013-01-01 05:24:00,58.5,55.9,30.13,SSE,148,0.0,20.0,91,0.00,,,0.00,0,Wunderground v.1.15,2013-01-01 10:24:00,
2013-01-01 05:30:00,58.1,55.2,30.12,SSE,148,0.0,20.0,90,0.00,,,0.00,0,Wunderground v.1.15,2013-01-01 10:30:00,
2013-01-01 05:36:00,57.5,54.6,30.12,SSE,148,0.0,20.0,90,0.00,,,0.00,0,Wunderground v.1.15,2013-01-01 10:36:00,
2013-01-01 05:42:00,56.9,54.0,30.12,SSE,148,0.0,20.0,90,0.00,,,0.00,0,Wunderground v.1.15,2013-01-01 10:42:00,
2013-01-01 05:48:00,56.1,53.2,30.13,SSE,148,0.0,20.0,90,0.00,,,0.00,0,Wunderground v.1.15,2013-01-01 10:48:00,
2013-01-01 05:54:00,55.8,53.5,30.13,SSE,148,0.0,20.0,92,0.00,,,0.00,0,Wunderground v.1.15,2013-01-01 10:54:00,
2013-01-01 05:59:00,55.5,53.2,30.13,SSE,148,0.0,20.0,92,0.00,,,0.00,0,Wunderground v.1.15,2013-01-01 10:59:00,
2013-01-01 06:05:00,55.3,53.0,30.13,SSE,148,0.0,20.0,92,0.00,,,0.00,0,Wunderground v.1.15,2013-01-01 11:05:00,
2013-01-01 06:11:00,55.1,53.1,30.13,SSE,148,0.0,20.0,93,0.00,,,0.00,0,Wunderground v.1.15,2013-01-01 11:11:00,
2013-01-01 06:17:00,54.9,52.9,30.13,SSE,148,0.0,20.0,93,0.00,,,0.00,0,Wunderground v.1.15,2013-01-01 11:17:00,
2013-01-01 06:22:00,54.8,52.8,30.13,SSE,148,0.0,20.0,93,0.00,,,0.00,0,Wunderground v.1.15,2013-01-01 11:22:00,
2013-01-01 06:28:00,54.6,52.9,30.13,SSE,148,0.0,20.0,94,0.00,,,0.00,0,Wunderground v.1.15,2013-01-01 11:28:00,
2013-01-01 06:33:00,54.4,52.4,30.13,SSE,148,0.0,20.0,93,0.00,,,0.00,0,Wunderground v.1.15,2013-01-01 11:33:00,
2013-01-01 06:39:00,54.4,52.7,30.14,SSE,148,0.0,20.0,94,0.00,,,0.00,0,Wunderground v.1.15,2013-01-01 11:39:00,
2013-01-01 06:44:00,54.3,52.6,30.14,SSE,148,0.0,20.0,94,0.00,,,0.00,0,Wunderground v.1.15,2013-01-01 11:44:00,
2013-01-01 06:50:00,54.3,52.6,30.14,SSE,148,0.0,20.0,94,0.00,,,0.00,0,Wunderground v.1.15,2013-01-01 11:50:00,
2013-01-01 06:56:00,54.3,52.9,30.14,SSE,148,0.0,20.0,95,0.00,,,0.00,0,Wunderground v.1.15,2013-01-01 11:56:00,
2013-01-01 07:02:00,54.4,53.0,30.14,SSE,148,0.0,20.0,95,0.00,,,0.00,0,Wunderground v.1.15,2013-01-01 12:02:00,
2013-01-01 07:07:00,54.3,52.9,30.14,SSE,148,0.0,20.0,95,0.00,,,0.00,0,Wunderground v.1.15,2013-01-01 12:07:00,
2013-01-01 07:13:00,54.2,52.8,30.14,SSE,148,0.0,20.0,95,0.00,,,0.00,0,Wunderground v.1.15,2013-01-01 12:13:00,
2013-01-01 07:19:00,54.2,52.8,30.14,SSE,148,0.0,20.0,95,0.00,,,0.00,5,Wunderground v.1.15,2013-01-01 12:19:00,
2013-01-01 07:25:00,54.3,52.9,30.15,SSE,148,0.0,20.0,95,0.00,,,0.00,11,Wunderground v.1.15,2013-01-01 12:25:00,
2013-01-01 07:30:00,54.5,53.1,30.15,SSE,148,0.0,20.0,95,0.00,,,0.00,14,Wunderground v.1.15,2013-01-01 12:30:00,
2013-01-01 07:36:00,54.7,53.6,30.15,East,100,0.0,20.0,96,0.00,,,0.00,19,Wunderground v.1.15,2013-01-01 12:36:00,
2013-01-01 07:42:00,54.7,53.3,30.15,ESE,103,0.0,20.0,95,0.00,,,0.00,25,Wunderground v.1.15,2013-01-01 12:42:00,
2013-01-01 07:48:00,54.7,53.3,30.15,ESE,103,0.0,20.0,95,0.00,,,0.00,37,Wunderground v.1.15,2013-01-01 12:48:00,
2013-01-01 07:54:00,54.7,53.6,30.16,ESE,103,0.0,20.0,96,0.00,,,0.00,44,Wunderground v.1.15,2013-01-01 12:54:00,
2013-01-01 08:00:00,55.0,53.9,30.15,ESE,113,0.0,20.0,96,0.00,,,0.00,70,Wunderground v.1.15,2013-01-01 13:00:00,
2013-01-01 08:06:00,55.5,54.4,30.15,SSE,161,0.0,20.0,96,0.00,,,0.00,90,Wunderground v.1.15,2013-01-01 13:06:00,
2013-01-01 08:11:00,55.8,54.7,30.15,SSE,161,0.0,20.0,96,0.00,,,0.00,107,Wunderground v.1.15,2013-01-01 13:11:00,
2013-01-01 08:17:00,56.4,55.6,30.15,SSE,161,0.0,20.0,97,0.00,,,0.00,121,Wunderground v.1.15,2013-01-01 13:17:00,
2013-01-01 08:23:00,57.3,56.5,30.15,SSW,195,0.0,20.0,97,0.00,,,0.00,137,Wunderground v.1.15,2013-01-01 13:23:00,
2013-01-01 08:29:00,58.2,57.4,30.15,SSW,194,0.0,20.0,97,0.00,,,0.00,156,Wunderground v.1.15,2013-01-01 13:29:00,
2013-01-01 08:34:00,58.8,58.0,30.15,SSW,194,0.0,20.0,97,0.00,,,0.00,185,Wunderground v.1.15,2013-01-01 13:34:00,
2013-01-01 08:40:00,59.3,58.4,30.15,SSW,194,0.0,20.0,97,0.00,,,0.00,190,Wunderground v.1.15,2013-01-01 13:40:00,
2013-01-01 08:46:00,59.7,58.6,30.15,SSW,195,0.0,20.0,96,0.00,,,0.00,202,Wunderground v.1.15,2013-01-01 13:46:00,
2013-01-01 08:52:00,60.2,58.8,30.15,SSW,195,0.0,20.0,95,0.00,,,0.00,221,Wunderground v.1.15,2013-01-01 13:52:00,
2013-01-01 08:58:00,60.8,59.1,30.15,SE,138,0.0,20.0,94,0.00,,,0.00,251,Wunderground v.1.15,2013-01-01 13:58:00,
2013-01-01 09:04:00,61.5,59.5,30.15,SE,138,0.0,20.0,93,0.00,,,0.00,262,Wunderground v.1.15,2013-01-01 14:04:00,
2013-01-01 09:10:00,62.2,59.8,30.15,SE,138,0.0,20.0,92,0.00,,,0.00,181,Wunderground v.1.15,2013-01-01 14:10:00,
2013-01-01 09:15:00,62.4,59.4,30.16,SE,138,0.0,20.0,90,0.00,,,0.00,200,Wunderground v.1.15,2013-01-01 14:15:00,
2013-01-01 09:21:00,62.6,59.6,30.16,SE,138,0.0,20.0,90,0.00,,,0.00,200,Wunderground v.1.15,2013-01-01 14:21:00,
2013-01-01 09:27:00,62.6,59.3,30.16,SE,138,0.0,20.0,89,0.00,,,0.00,213,Wunderground v.1.15,2013-01-01 14:27:00,
2013-01-01 09:33:00,62.8,59.8,30.16,SE,138,0.0,20.0,90,0.00,,,0.00,230,Wunderground v.1.15,2013-01-01 14:33:00,
2013-01-01 09:38:00,63.1,60.1,30.16,SE,138,0.0,20.0,90,0.00,,,0.00,269,Wunderground v.1.15,2013-01-01 14:38:00,
2013-01-01 09:44:00,63.4,60.1,30.16,SE,138,0.0,20.0,89,0.00,,,0.00,257,Wunderground v.1.15,2013-01-01 14:44:00,
2013-01-01 09:50:00,63.8,60.5,30.17,SE,138,0.0,20.0,89,0.00,,,0.00,221,Wunderground v.1.15,2013-01-01 14:50:00,
2013-01-01 09:56:00,64.3,60.3,30.17,ESE,102,0.0,20.0,87,0.00,,,0.00,214,Wunderground v.1.15,2013-01-01 14:56:00,
2013-01-01 10:02:00,64.8,60.8,30.17,WSW,246,0.0,20.0,87,0.00,,,0.00,218,Wunderground v.1.15,2013-01-01 15:02:00,
2013-01-01 10:08:00,65.1,60.5,30.17,NW,308,0.0,20.0,85,0.00,,,0.00,253,Wunderground v.1.15,2013-01-01 15:08:00,
2013-01-01 10:14:00,65.4,60.1,30.17,NW,308,0.0,20.0,83,0.00,,,0.00,332,Wunderground v.1.15,2013-01-01 15:14:00,
2013-01-01 10:19:00,65.6,60.3,30.16,NW,308,0.0,20.0,83,0.00,,,0.00,287,Wunderground v.1.15,2013-01-01 15:19:00,
2013-01-01 10:25:00,65.7,60.4,30.16,WNW,295,1.0,20.0,83,0.00,,,0.00,278,Wunderground v.1.15,2013-01-01 15:25:00,
2013-01-01 10:31:00,65.6,61.0,30.16,West,273,4.0,20.0,85,0.00,,,0.00,295,Wunderground v.1.15,2013-01-01 15:31:00,
2013-01-01 10:37:00,65.9,61.3,30.15,West,273,3.0,20.0,85,0.00,,,0.00,536,Wunderground v.1.15,2013-01-01 15:37:00,
2013-01-01 10:42:00,66.7,61.4,30.15,West,273,1.0,20.0,83,0.00,,,0.00,533,Wunderground v.1.15,2013-01-01 15:42:00,
2013-01-01 10:48:00,67.6,61.2,30.15,West,273,0.0,20.0,80,0.00,,,0.00,438,Wunderground v.1.15,2013-01-01 15:48:00,
2013-01-01 10:54:00,68.3,61.2,30.15,West,273,0.0,20.0,78,0.00,,,0.00,441,Wunderground v.1.15,2013-01-01 15:54:00,
2013-01-01 11:00:00,69.2,62.0,30.15,South,170,0.0,20.0,78,0.00,,,0.00,397,Wunderground v.1.15,2013-01-01 16:00:00,
2013-01-01 11:06:00,70.1,62.9,30.15,South,170,0.0,20.0,78,0.00,,,0.00,575,Wunderground v.1.15,2013-01-01 16:06:00,
2013-01-01 11:12:00,70.8,62.5,30.14,SSW,204,1.0,20.0,75,0.00,,,0.00,580,Wunderground v.1.15,2013-01-01 16:12:00,
2013-01-01 11:18:00,70.3,61.6,30.14,SSW,202,6.0,20.0,74,0.00,,,0.00,594,Wunderground v.1.15,2013-01-01 16:18:00,
2013-01-01 11:23:00,70.0,62.1,30.14,SSW,205,8.0,20.0,76,0.00,,,0.00,599,Wunderground v.1.15,2013-01-01 16:23:00,
2013-01-01 11:29:00,69.9,61.6,30.13,SSW,204,7.0,20.0,75,0.00,,,0.00,601,Wunderground v.1.15,2013-01-01 16:29:00,
2013-01-01 11:35:00,70.2,61.5,30.13,SSW,207,7.0,20.0,74,0.00,,,0.00,670,Wunderground v.1.15,2013-01-01 16:35:00,
2013-01-01 11:41:00,70.5,61.4,30.13,SSW,207,9.0,20.0,73,0.00,,,0.00,645,Wunderground v.1.15,2013-01-01 16:41:00,
2013-01-01 11:46:00,70.7,61.2,30.13,SW,216,9.0,20.0,72,0.00,,,0.00,626,Wunderground v.1.15,2013-01-01 16:46:00,
2013-01-01 11:52:00,70.8,61.3,30.12,SW,214,11.0,20.0,72,0.00,,,0.00,631,Wunderground v.1.15,2013-01-01 16:52:00,
2013-01-01 11:58:00,70.8,60.9,30.12,SSW,211,15.0,20.0,71,0.00,,,0.00,656,Wunderground v.1.15,2013-01-01 16:58:00,
2013-01-01 12:04:00,70.9,61.4,30.11,SW,217,15.0,20.0,72,0.00,,,0.00,687,Wunderground v.1.15,2013-01-01 17:04:00,
2013-01-01 12:10:00,71.1,61.2,30.11,SSW,200,14.0,20.0,71,0.00,,,0.00,675,Wunderground v.1.15,2013-01-01 17:10:00,
2013-01-01 12:16:00,70.8,60.9,30.11,SW,228,16.0,23.0,71,0.00,,,0.00,673,Wunderground v.1.15,2013-01-01 17:16:00,
2013-01-01 12:24:00,71.3,61.4,30.10,SSW,210,14.0,20.0,71,0.00,,,0.00,729,Wunderground v.1.15,2013-01-01 17:24:00,
2013-01-01 12:30:00,70.9,62.2,30.10,SSW,192,14.0,20.0,74,0.00,,,0.00,759,Wunderground v.1.15,2013-01-01 17:30:00,
2013-01-01 12:36:00,70.8,61.7,30.10,SSW,195,17.0,20.0,73,0.00,,,0.00,763,Wunderground v.1.15,2013-01-01 17:36:00,
2013-01-01 12:41:00,70.6,61.9,30.10,SSW,198,17.0,20.0,74,0.00,,,0.00,714,Wunderground v.1.15,2013-01-01 17:41:00,
2013-01-01 12:47:00,70.4,61.3,30.10,SSW,199,17.0,20.0,73,0.00,,,0.00,728,Wunderground v.1.15,2013-01-01 17:47:00,
2013-01-01 12:53:00,70.8,60.9,30.09,SSW,202,14.0,20.0,71,0.00,,,0.00,691,Wunderground v.1.15,2013-01-01 17:53:00,
2013-01-01 12:59:00,71.1,61.6,30.09,SSW,203,12.0,20.0,72,0.00,,,0.00,780,Wunderground v.1.15,2013-01-01 17:59:00,
2013-01-01 13:05:00,71.7,61.4,30.09,SSW,210,13.0,20.0,70,0.00,,,0.00,728,Wunderground v.1.15,2013-01-01 18:05:00,
2013-01-01 13:11:00,71.7,61.8,30.08,SSW,198,13.0,20.0,71,0.00,,,0.00,747,Wunderground v.1.15,2013-01-01 18:11:00,
2013-01-01 13:17:00,71.4,61.9,30.08,SSW,205,14.0,20.0,72,0.00,,,0.00,209,Wunderground v.1.15,2013-01-01 18:17:00,
2013-01-01 13:23:00,71.6,62.1,30.07,SSW,212,12.0,20.0,72,0.00,,,0.00,292,Wunderground v.1.15,2013-01-01 18:23:00,
2013-01-01 13:28:00,72.0,62.1,30.07,SW,219,11.0,20.0,71,0.00,,,0.00,726,Wunderground v.1.15,2013-01-01 18:28:00,
2013-01-01 13:34:00,71.9,62.0,30.07,SSW,193,11.0,20.0,71,0.00,,,0.00,737,Wunderground v.1.15,2013-01-01 18:34:00,
2013-01-01 13:40:00,71.8,62.3,30.06,SW,217,13.0,13.0,72,0.00,,,0.00,689,Wunderground v.1.15,2013-01-01 18:40:00,
2013-01-01 13:46:00,72.2,61.9,30.06,SSW,209,12.0,20.0,70,0.00,,,0.00,675,Wunderground v.1.15,2013-01-01 18:46:00,
2013-01-01 13:51:00,72.3,62.0,30.06,SW,221,11.0,20.0,70,0.00,,,0.00,703,Wunderground v.1.15,2013-01-01 18:51:00,
2013-01-01 13:57:00,72.8,62.4,30.06,WSW,240,11.0,20.0,70,0.00,,,0.00,668,Wunderground v.1.15,2013-01-01 18:57:00,
2013-01-01 14:03:00,73.1,62.7,30.06,WSW,241,12.0,20.0,70,0.00,,,0.00,671,Wunderground v.1.15,2013-01-01 19:03:00,
2013-01-01 14:09:00,73.5,62.7,30.06,SSW,204,11.0,20.0,69,0.00,,,0.00,612,Wunderground v.1.15,2013-01-01 19:09:00,
2013-01-01 14:15:00,73.3,61.7,30.05,South,189,9.0,20.0,67,0.00,,,0.00,606,Wunderground v.1.15,2013-01-01 19:15:00,
2013-01-01 14:21:00,73.2,62.0,30.05,SSW,208,7.0,20.0,68,0.00,,,0.00,181,Wunderground v.1.15,2013-01-01 19:21:00,
2013-01-01 14:27:00,72.7,61.9,30.04,South,187,8.0,20.0,69,0.00,,,0.00,577,Wunderground v.1.15,2013-01-01 19:27:00,
2013-01-01 14:32:00,72.1,62.2,30.04,SSW,196,9.0,20.0,71,0.00,,,0.00,545,Wunderground v.1.15,2013-01-01 19:32:00,
2013-01-01 14:38:00,72.5,62.6,30.04,SW,219,8.0,20.0,71,0.00,,,0.00,550,Wunderground v.1.15,2013-01-01 19:38:00,
2013-01-01 14:44:00,73.1,62.3,30.05,SSW,195,7.0,20.0,69,0.00,,,0.00,540,Wunderground v.1.15,2013-01-01 19:44:00,
2013-01-01 14:50:00,72.7,61.9,30.04,SSW,202,10.0,10.0,69,0.00,,,0.00,499,Wunderground v.1.15,2013-01-01 19:50:00,
2013-01-01 14:55:00,72.9,62.1,30.04,South,189,8.0,20.0,69,0.00,,,0.00,487,Wunderground v.1.15,2013-01-01 19:55:00,
2013-01-01 15:01:00,72.8,62.8,30.04,SSW,203,8.0,20.0,71,0.00,,,0.00,425,Wunderground v.1.15,2013-01-01 20:01:00,
2013-01-01 15:07:00,72.9,61.3,30.04,SSW,213,9.0,20.0,67,0.00,,,0.00,466,Wunderground v.1.15,2013-01-01 20:07:00,
2013-01-01 15:13:00,73.6,62.0,30.04,SSW,204,9.0,20.0,67,0.00,,,0.00,452,Wunderground v.1.15,2013-01-01 20:13:00,
2013-01-01 15:19:00,73.0,62.2,30.04,SSW,197,9.0,20.0,69,0.00,,,0.00,156,Wunderground v.1.15,2013-01-01 20:19:00,
2013-01-01 15:25:00,72.4,61.2,30.04,South,186,9.0,20.0,68,0.00,,,0.00,107,Wunderground v.1.15,2013-01-01 20:25:00,
2013-01-01 15:31:00,72.1,61.4,30.04,SW,216,7.0,20.0,69,0.00,,,0.00,128,Wunderground v.1.15,2013-01-01 20:31:00,
2013-01-01 15:36:00,72.1,61.8,30.04,SSW,207,7.0,20.0,70,0.00,,,0.00,385,Wunderground v.1.15,2013-01-01 20:36:00,
2013-01-01 15:42:00,72.6,62.7,30.04,SSW,208,5.0,20.0,71,0.00,,,0.00,413,Wunderground v.1.15,2013-01-01 20:42:00,
2013-01-01 15:48:00,73.0,63.0,30.04,SSW,203,4.0,20.0,71,0.00,,,0.00,383,Wunderground v.1.15,2013-01-01 20:48:00,
2013-01-01 15:54:00,72.6,62.3,30.04,SSW,194,6.0,20.0,70,0.00,,,0.00,113,Wunderground v.1.15,2013-01-01 20:54:00,
2013-01-01 15:59:00,72.3,63.2,30.04,SSW,193,6.0,20.0,73,0.00,,,0.00,341,Wunderground v.1.15,2013-01-01 20:59:00,
2013-01-01 16:05:00,71.9,63.5,30.04,SSW,192,6.0,20.0,75,0.00,,,0.00,322,Wunderground v.1.15,2013-01-01 21:05:00,
2013-01-01 16:11:00,72.0,61.7,30.04,SSW,209,5.0,20.0,70,0.00,,,0.00,292,Wunderground v.1.15,2013-01-01 21:11:00,
2013-01-01 16:17:00,72.4,63.3,30.04,SSW,199,6.0,20.0,73,0.00,,,0.00,264,Wunderground v.1.15,2013-01-01 21:17:00,
2013-01-01 16:23:00,71.9,63.2,30.04,SSW,200,6.0,20.0,74,0.00,,,0.00,199,Wunderground v.1.15,2013-01-01 21:23:00,
2013-01-01 16:29:00,71.3,62.6,30.04,SSW,197,5.0,20.0,74,0.00,,,0.00,118,Wunderground v.1.15,2013-01-01 21:29:00,
2013-01-01 16:35:00,71.2,62.5,30.04,SSW,197,5.0,20.0,74,0.00,,,0.00,221,Wunderground v.1.15,2013-01-01 21:35:00,
2013-01-01 16:40:00,71.6,63.6,30.04,SSW,194,5.0,5.0,76,0.00,,,0.00,206,Wunderground v.1.15,2013-01-01 21:40:00,
2013-01-01 16:46:00,72.0,63.6,30.04,SSW,194,4.0,20.0,75,0.00,,,0.00,178,Wunderground v.1.15,2013-01-01 21:46:00,
2013-01-01 16:52:00,71.9,63.5,30.04,SSW,194,4.0,20.0,75,0.00,,,0.00,135,Wunderground v.1.15,2013-01-01 21:52:00,
2013-01-01 16:58:00,71.6,63.3,30.04,SSW,194,4.0,20.0,75,0.00,,,0.00,102,Wunderground v.1.15,2013-01-01 21:58:00,
2013-01-01 17:03:00,71.5,63.5,30.04,SSW,194,4.0,20.0,76,0.00,,,0.00,83,Wunderground v.1.15,2013-01-01 22:03:00,
2013-01-01 17:09:00,71.5,63.2,30.04,SSW,194,3.0,20.0,75,0.00,,,0.00,65,Wunderground v.1.15,2013-01-01 22:09:00,
2013-01-01 17:15:00,71.6,63.3,30.04,SSW,195,3.0,20.0,75,0.00,,,0.00,53,Wunderground v.1.15,2013-01-01 22:15:00,
2013-01-01 17:21:00,71.3,63.0,30.04,SSW,195,3.0,20.0,75,0.00,,,0.00,30,Wunderground v.1.15,2013-01-01 22:21:00,
2013-01-01 17:27:00,71.1,62.4,30.04,SSW,195,2.0,20.0,74,0.00,,,0.00,18,Wunderground v.1.15,2013-01-01 22:27:00,
2013-01-01 17:33:00,70.8,62.1,30.04,SSW,194,1.0,20.0,74,0.00,,,0.00,11,Wunderground v.1.15,2013-01-01 22:33:00,
2013-01-01 17:39:00,70.4,61.7,30.04,SSW,195,0.0,20.0,74,0.00,,,0.00,5,Wunderground v.1.15,2013-01-01 22:39:00,
2013-01-01 17:44:00,69.9,61.2,30.04,SSW,195,0.0,20.0,74,0.00,,,0.00,0,Wunderground v.1.15,2013-01-01 22:44:00,
2013-01-01 17:50:00,69.4,61.1,30.04,SSW,195,0.0,20.0,75,0.00,,,0.00,0,Wunderground v.1.15,2013-01-01 22:50:00,
2013-01-01 17:56:00,68.9,61.0,30.04,SSW,194,0.0,20.0,76,0.00,,,0.00,0,Wunderground v.1.15,2013-01-01 22:56:00,
2013-01-01 18:02:00,68.5,60.6,30.05,SSW,194,0.0,20.0,76,0.00,,,0.00,0,Wunderground v.1.15,2013-01-01 23:02:00,
2013-01-01 18:07:00,68.1,60.6,30.05,SSW,195,0.0,20.0,77,0.00,,,0.00,0,Wunderground v.1.15,2013-01-01 23:07:00,
2013-01-01 18:13:00,67.8,60.7,30.05,SSW,194,0.0,20.0,78,0.00,,,0.00,0,Wunderground v.1.15,2013-01-01 23:13:00,
2013-01-01 18:19:00,67.5,60.4,30.04,SSW,195,0.0,20.0,78,0.00,,,0.00,0,Wunderground v.1.15,2013-01-01 23:19:00,
2013-01-01 18:25:00,67.4,60.3,30.04,SSW,195,0.0,20.0,78,0.00,,,0.00,0,Wunderground v.1.15,2013-01-01 23:25:00,
2013-01-01 18:31:00,67.3,60.2,30.04,SSW,195,0.0,20.0,78,0.00,,,0.00,0,Wunderground v.1.15,2013-01-01 23:31:00,
2013-01-01 18:37:00,67.3,60.2,30.04,SSW,195,0.0,20.0,78,0.00,,,0.00,0,Wunderground v.1.15,2013-01-01 23:37:00,
2013-01-01 18:43:00,67.3,60.6,30.04,SSW,194,0.0,20.0,79,0.00,,,0.00,0,Wunderground v.1.15,2013-01-01 23:43:00,
2013-01-01 18:48:00,67.1,60.4,30.04,SSW,194,0.0,20.0,79,0.00,,,0.00,0,Wunderground v.1.15,2013-01-01 23:48:00,
2013-01-01 18:54:00,66.8,60.4,30.04,SSW,194,0.0,20.0,80,0.00,,,0.00,0,Wunderground v.1.15,2013-01-01 23:54:00,
2013-01-01 19:00:00,66.6,60.2,30.05,SSW,194,0.0,20.0,80,0.00,,,0.00,0,Wunderground v.1.15,2013-01-02 00:00:00,
2013-01-01 19:06:00,66.3,60.3,30.05,SSW,194,0.0,20.0,81,0.00,,,0.00,0,Wunderground v.1.15,2013-01-02 00:06:00,
2013-01-01 19:11:00,66.3,60.6,30.05,SSW,195,0.0,20.0,82,0.00,,,0.00,0,Wunderground v.1.15,2013-01-02 00:11:00,
2013-01-01 19:17:00,66.3,60.6,30.05,SSW,195,0.0,20.0,82,0.00,,,0.00,0,Wunderground v.1.15,2013-01-02 00:17:00,
2013-01-01 19:23:00,66.3,61.0,30.05,SSW,195,0.0,20.0,83,0.00,,,0.00,0,Wunderground v.1.15,2013-01-02 00:23:00,
2013-01-01 19:29:00,66.3,61.0,30.05,SSW,195,0.0,20.0,83,0.00,,,0.00,0,Wunderground v.1.15,2013-01-02 00:29:00,
2013-01-01 19:35:00,66.3,61.0,30.05,SSW,195,0.0,20.0,83,0.00,,,0.00,0,Wunderground v.1.15,2013-01-02 00:35:00,
2013-01-01 19:41:00,66.3,61.0,30.05,SSW,195,0.0,20.0,83,0.00,,,0.00,0,Wunderground v.1.15,2013-01-02 00:41:00,
2013-01-01 19:47:00,66.2,61.2,30.05,SSW,195,0.0,20.0,84,0.00,,,0.00,0,Wunderground v.1.15,2013-01-02 00:47:00,
2013-01-01 19:52:00,66.1,60.8,30.05,SSW,194,0.0,20.0,83,0.00,,,0.00,0,Wunderground v.1.15,2013-01-02 00:52:00,
2013-01-01 19:58:00,66.0,61.0,30.05,SSW,194,0.0,20.0,84,0.00,,,0.00,0,Wunderground v.1.15,2013-01-02 00:58:00,
2013-01-01 20:04:00,65.8,61.2,30.05,SSW,195,0.0,20.0,85,0.00,,,0.00,0,Wunderground v.1.15,2013-01-02 01:04:00,
2013-01-01 20:10:00,65.6,61.3,30.05,SSW,195,0.0,20.0,86,0.00,,,0.00,0,Wunderground v.1.15,2013-01-02 01:10:00,
2013-01-01 20:16:00,65.3,61.0,30.05,SSW,195,0.0,20.0,86,0.00,,,0.00,0,Wunderground v.1.15,2013-01-02 01:16:00,
2013-01-01 20:22:00,65.0,60.7,30.05,SSW,195,0.0,20.0,86,0.00,,,0.00,0,Wunderground v.1.15,2013-01-02 01:22:00,
2013-01-01 20:28:00,64.8,60.8,30.05,SSW,194,0.0,20.0,87,0.00,,,0.00,0,Wunderground v.1.15,2013-01-02 01:28:00,
2013-01-01 20:34:00,64.5,60.5,30.05,SSW,195,0.0,20.0,87,0.00,,,0.00,0,Wunderground v.1.15,2013-01-02 01:34:00,
2013-01-01 20:39:00,64.4,61.1,30.05,SSW,194,0.0,20.0,89,0.00,,,0.00,0,Wunderground v.1.15,2013-01-02 01:39:00,
2013-01-01 20:45:00,64.3,61.0,30.05,SSW,195,0.0,20.0,89,0.00,,,0.00,0,Wunderground v.1.15,2013-01-02 01:45:00,
2013-01-01 20:51:00,64.1,61.1,30.04,SSW,194,0.0,20.0,90,0.00,,,0.00,0,Wunderground v.1.15,2013-01-02 01:51:00,
2013-01-01 20:57:00,63.9,60.9,30.05,SSW,195,0.0,20.0,90,0.00,,,0.00,0,Wunderground v.1.15,2013-01-02 01:57:00,
2013-01-01 21:02:00,63.6,60.6,30.05,SSW,195,0.0,20.0,90,0.00,,,0.00,0,Wunderground v.1.15,2013-01-02 02:02:00,
2013-01-01 21:08:00,63.2,60.2,30.05,WNW,298,1.0,20.0,90,0.00,,,0.00,0,Wunderground v.1.15,2013-01-02 02:08:00,
2013-01-01 21:14:00,63.1,60.1,30.05,WNW,302,4.0,20.0,90,0.00,,,0.00,0,Wunderground v.1.15,2013-01-02 02:14:00,
2013-01-01 21:20:00,63.0,60.0,30.06,WNW,299,3.0,3.0,90,0.00,,,0.00,0,Wunderground v.1.15,2013-01-02 02:20:00,
2013-01-01 21:26:00,62.9,59.6,30.06,WNW,300,1.0,20.0,89,0.00,,,0.00,0,Wunderground v.1.15,2013-01-02 02:26:00,
2013-01-01 21:32:00,62.8,59.5,30.05,WNW,299,0.0,20.0,89,0.00,,,0.00,0,Wunderground v.1.15,2013-01-02 02:32:00,
2013-01-01 21:38:00,62.9,59.6,30.05,WNW,299,0.0,20.0,89,0.00,,,0.00,0,Wunderground v.1.15,2013-01-02 02:38:00,
2013-01-01 21:43:00,62.9,59.6,30.05,WNW,299,0.0,20.0,89,0.00,,,0.00,0,Wunderground v.1.15,2013-01-02 02:43:00,
2013-01-01 21:49:00,62.8,59.5,30.06,WNW,299,0.0,20.0,89,0.00,,,0.00,0,Wunderground v.1.15,2013-01-02 02:49:00,
2013-01-01 21:55:00,62.7,59.1,30.05,WNW,299,0.0,20.0,88,0.00,,,0.00,0,Wunderground v.1.15,2013-01-02 02:55:00,
2013-01-01 22:01:00,62.4,58.8,30.05,WNW,299,0.0,20.0,88,0.00,,,0.00,0,Wunderground v.1.15,2013-01-02 03:01:00,
2013-01-01 22:06:00,62.2,58.9,30.06,WNW,299,0.0,20.0,89,0.00,,,0.00,0,Wunderground v.1.15,2013-01-02 03:06:00,
2013-01-01 22:12:00,62.0,58.7,30.06,WNW,299,0.0,20.0,89,0.00,,,0.00,0,Wunderground v.1.15,2013-01-02 03:12:00,
2013-01-01 22:18:00,61.6,58.3,30.05,WNW,299,0.0,20.0,89,0.00,,,0.00,0,Wunderground v.1.15,2013-01-02 03:18:00,
2013-01-01 22:24:00,61.4,58.4,30.06,WNW,299,0.0,20.0,90,0.00,,,0.00,0,Wunderground v.1.15,2013-01-02 03:24:00,
2013-01-01 22:30:00,61.3,58.3,30.06,WNW,299,0.0,20.0,90,0.00,,,0.00,0,Wunderground v.1.15,2013-01-02 03:30:00,
2013-01-01 22:36:00,61.1,58.1,30.05,WNW,299,0.0,20.0,90,0.00,,,0.00,0,Wunderground v.1.15,2013-01-02 03:36:00,
2013-01-01 22:42:00,60.9,57.9,30.05,WNW,299,0.0,20.0,90,0.00,,,0.00,0,Wunderground v.1.15,2013-01-02 03:42:00,
2013-01-01 22:47:00,60.9,58.3,30.05,WNW,299,0.0,20.0,91,0.00,,,0.00,0,Wunderground v.1.15,2013-01-02 03:47:00,
2013-01-01 22:53:00,60.8,58.2,30.05,WNW,299,0.0,20.0,91,0.00,,,0.00,0,Wunderground v.1.15,2013-01-02 03:53:00,
2013-01-01 22:59:00,60.7,58.1,30.05,WNW,299,0.0,20.0,91,0.00,,,0.00,0,Wunderground v.1.15,2013-01-02 03:59:00,
2013-01-01 23:05:00,60.6,58.0,30.05,WNW,299,0.0,20.0,91,0.00,,,0.00,0,Wunderground v.1.15,2013-01-02 04:05:00,
2013-01-01 23:10:00,60.5,57.6,30.04,WNW,299,0.0,20.0,90,0.00,,,0.00,0,Wunderground v.1.15,2013-01-02 04:10:00,
2013-01-01 23:16:00,60.3,57.4,30.05,WNW,299,0.0,20.0,90,0.00,,,0.00,0,Wunderground v.1.15,2013-01-02 04:16:00,
2013-01-01 23:22:00,60.0,57.4,30.04,WNW,299,0.0,20.0,91,0.00,,,0.00,0,Wunderground v.1.15,2013-01-02 04:22:00,
2013-01-01 23:28:00,59.9,57.3,30.04,WNW,299,0.0,20.0,91,0.00,,,0.00,0,Wunderground v.1.15,2013-01-02 04:28:00,
2013-01-01 23:34:00,59.8,57.5,30.04,WNW,299,0.0,20.0,92,0.00,,,0.00,0,Wunderground v.1.15,2013-01-02 04:34:00,
2013-01-01 23:40:00,59.7,57.4,30.04,WNW,299,0.0,20.0,92,0.00,,,0.00,0,Wunderground v.1.15,2013-01-02 04:40:00,
2013-01-01 23:46:00,59.7,57.4,30.03,WNW,299,0.0,20.0,92,0.00,,,0.00,0,Wunderground v.1.15,2013-01-02 04:46:00,
2013-01-01 23:51:00,59.6,57.3,30.03,WNW,299,0.0,20.0,92,0.00,,,0.00,0,Wunderground v.1.15,2013-01-02 04:51:00,
2013-01-01 23:57:00,59.6,57.6,30.03,WNW,299,0.0,20.0,93,0.00,,,0.00,0,Wunderground v.1.15,2013-01-02 04:57:00,